Location: Melbourne
(37.8666°S, 145.1333°E)
Time: 00:54:12
(UTC+10:00)

Iridium 21 - Visible Passes

Search period start: 21 April 2018 00:00
Search period end: 01 May 2018 00:00
Orbit: 776 x 779 km, 86.4° (Epoch: 20 April)

Date Brightness Start Highest point End Pass type
(mag) Time Alt. Az. Time Alt. Az. Time Alt. Az.
21 Apr 6.5 04:23:45 10° NNE 04:28:45 47° E 04:33:49 10° SSE visible
21 Apr 6.8 06:06:10 10° WNW 06:09:43 18° WSW 06:13:19 10° SSW visible
22 Apr 7.6 03:51:11 10° NE 03:55:26 25° E 03:59:43 10° SSE visible
22 Apr 6.1 05:31:14 10° NW 05:35:57 33° W 05:40:43 10° SSW visible
23 Apr 8.3 03:19:43 10° ENE 03:22:14 14° ESE 03:24:46 10° SE visible
23 Apr 5.4 04:57:07 10° NNW 05:02:18 63° W 05:07:34 10° S visible
24 Apr 5.7 04:28:30 68° ENE 04:28:48 70° E 04:34:04 10° S visible
24 Apr 7.2 06:09:08 12° W 06:10:03 12° WSW 06:12:10 10° SW visible
25 Apr 7.1 03:56:52 31° SE 03:56:52 31° SE 04:00:14 10° SSE visible
25 Apr 6.8 05:37:27 21° WSW 05:37:27 21° WSW 05:40:21 10° SSW visible
26 Apr 8.2 03:24:43 14° SE 03:24:43 14° SE 03:25:54 10° SE visible
26 Apr 6.9 05:05:16 24° SSW 05:05:16 24° SSW 05:07:30 10° SSW visible
27 Apr 7.4 04:32:49 19° S 04:32:49 19° S 04:34:12 10° S visible
28 Apr 8.1 04:00:12 12° SSE 04:00:12 12° SSE 04:00:35 10° SSE visible
